Akron, CO

9:38 AM MST on November 21, 2019 (GMT -0700)
Akron-Washington County

Weather History for KAKO - August, 2019

Change the Weather History Date:

Friday, August 23, 2019

  Actual Average Record
Temperature  
Mean Temperature 69 °F 71 °F  
Max Temperature 79 °F 85 °F 98 °F (1943)
Min Temperature 59 °F 57 °F 41 °F (1964)
Degree Days  
Heating Degree Days 0    
Month to date heating degree days 0  
Cooling Degree Days 4    
Month to date cooling degree days 224  
Growing Degree Days 20 (Base 50)    
Moisture  
Dew Point 61 °F    
Average Humidity 75    
Maximum Humidity 93    
Minimum Humidity 56    
Precipitation  
Precipitation 0.00 in 0.07 in 0.44 in (1992)
Month to date precipitation 3.10 1.83  
Year to date precipitation 14.19 13.02  
Snow  
Snow 0.00 in - - ()
Snow Depth 0.00 in    
Sea Level Pressure  
Sea Level Pressure 29.88 in    
Wind  
Wind Speed 19 mph (SE)    
Max Wind Speed 35 mph    
Max Gust Speed 43 mph    
Visibility 10 miles    
Events      
T = Trace of Precipitation, MM = Missing Value Source: NWS Daily Summary

Daily Weather History Graph

Daily Weather History Graph

Search for Another Location

Airport or City:

Astronomy

Aug. 23, 2019 Rise Set
Actual Time 6:11 AM MDT 7:38 PM MDT
Civil Twilight 5:43 AM MDT 8:07 PM MDT
Nautical Twilight 5:08 AM MDT 8:41 PM MDT
Astronomical Twilight 4:32 AM MDT 9:17 PM MDT
Moon No Moon Rise 1:51 PM MDT (8/23)
Length of Visible Light 14h 23m
Length of Day
13h 26m
Waning Gibbous, 49% of the Moon is Illuminated
Aug 23
Waning Gibbous
Aug 30
New
Sep 5
First Quarter
Sep 13
Full
Sep 21
Last Quarter

Hourly Weather History & Observations

Time (MDT) Temp. Dew Point Humidity Pressure Visibility Wind Dir Wind Speed Gust Speed Precip Events Conditions
12:53 AM 66.9 °F 60.1 °F 79% 29.78 in 10.0 mi SSE 17.3 mph - N/A   Clear
1:53 AM 66.0 °F 60.1 °F 81% 29.78 in 10.0 mi South 18.4 mph 25.3 mph N/A   Clear
2:53 AM 64.9 °F 59.0 °F 81% 29.79 in 10.0 mi SSE 17.3 mph 29.9 mph N/A   Clear
3:53 AM 64.0 °F 57.9 °F 80% 29.81 in 10.0 mi SSE 15.0 mph - N/A   Clear
4:53 AM 63.0 °F 57.9 °F 84% 29.83 in 10.0 mi SSE 16.1 mph - N/A   Clear
5:53 AM 63.0 °F 61.0 °F 93% 29.84 in 10.0 mi South 16.1 mph - N/A   Clear
6:53 AM 64.9 °F 62.1 °F 90% 30.00 in 9.0 mi South 16.1 mph - N/A   Clear
7:53 AM 68.0 °F 62.1 °F 81% 29.86 in 10.0 mi SSE 18.4 mph - N/A   Clear
8:53 AM 72.0 °F 63.0 °F 73% 29.85 in 10.0 mi SSE 18.4 mph - N/A   Clear
9:53 AM 73.9 °F 64.0 °F 71% 29.86 in 10.0 mi SE 23.0 mph - N/A   Clear
10:53 AM 73.0 °F 62.1 °F 68% 29.86 in 10.0 mi SSE 16.1 mph 26.5 mph N/A   Clear
11:53 AM 75.0 °F 62.1 °F 64% 29.85 in 10.0 mi SE 19.6 mph - N/A   Clear
12:53 PM 77.0 °F 61.0 °F 58% 29.85 in 10.0 mi SE 19.6 mph 26.5 mph N/A   Clear
1:53 PM 75.0 °F 62.1 °F 64% 29.86 in 10.0 mi ESE 26.5 mph 32.2 mph N/A   Clear
2:53 PM 78.1 °F 62.1 °F 58% 29.83 in 10.0 mi ESE 24.2 mph 35.7 mph N/A   Clear
3:53 PM 75.0 °F 62.1 °F 64% 29.86 in 10.0 mi ESE 23.0 mph 31.1 mph N/A   Clear
4:53 PM 75.0 °F 62.1 °F 64% 29.86 in 10.0 mi SE 19.6 mph - N/A   Clear
5:53 PM 73.9 °F 62.1 °F 66% 29.85 in 10.0 mi SE 19.6 mph - N/A   Clear
6:53 PM 72.0 °F 63.0 °F 73% 29.83 in 10.0 mi SE 23.0 mph 31.1 mph N/A   Partly Cloudy
7:07 PM 72.0 °F 64.0 °F 76% 30.03 in 10.0 mi ESE 20.7 mph 31.1 mph N/A   Mostly Cloudy
7:53 PM 69.1 °F 64.0 °F 84% 29.88 in 10.0 mi SE 27.6 mph 35.7 mph N/A   Mostly Cloudy
8:18 PM 68.0 °F 64.0 °F 87% 30.03 in 10.0 mi SE 25.3 mph 41.4 mph N/A   Mostly Cloudy
8:49 PM 66.2 °F 60.8 °F 83% 30.05 in 10.0 mi SSE 19.6 mph 35.7 mph N/A   Scattered Clouds
8:53 PM 66.0 °F 60.1 °F 81% 29.89 in 10.0 mi SSE 19.6 mph 28.8 mph N/A   Scattered Clouds
9:53 PM 64.9 °F 60.1 °F 84% 29.89 in 10.0 mi SE 13.8 mph - N/A   Clear
10:53 PM 63.0 °F 57.9 °F 84% 29.94 in 10.0 mi ENE 18.4 mph 25.3 mph N/A   Partly Cloudy
11:53 PM 60.1 °F 53.1 °F 78% 29.93 in 10.0 mi ENE 11.5 mph - N/A   Clear